Forside
METAR-TAF:

METAR-TAF

Lufthavne :

Bojnord, Iran

Breddekreds: 37-28N, længdekreds: 057-20E, højde: 1074 m

Aktuelle vejr

Denne rapport blev lavet for 55 minutter siden, kl. 02:00 UTC
Vind 2 kt fra sydvest
Temperatur 6°C
Fugtighed 87%
Tryk 1022 hPa
Sigt: 7000 m
Nogle få skyer i en højde af 4000 ft
Brudte skyer i en højde af 6000 ft

METAR: OIMN 170200Z 23002KT 7000 FEW040 BKN060 06/04 Q1022

Tid: 06:25 (02:55 UTC)


TAF: fraværende

Vejrobservationer og prognoser fra mere end 4000 lufthavne (METAR og TAF).

De gule og røde prikker repræsenterer de meteorologiske stationer.

Flyt musen over at se navnet på stationen.

Så klik over at se vejr observationer og prognoser.

At skifte det kort: Klik på de grønne knapper med et sort kors for at zoome ind; på den grønne knap med en bindestreg for at zoome ud; eller på de grønne pile for tilstødende kort.


METAR-TAF: